Regional Weather Roundup
Issued by NWS

Home | Current Version | Previous Version | Text Only | Print | Product List | Glossary Off
Versions: 1 2 3 4 5 6 7 8 9 10 11 12 13 14 15 16 17 18 19 20 21 22 23 24 25 26 27 28 29 30 31 32 33 34 35 36 37 38 39 40 41 42 43 44 45 46 47 48 49 50

000
ASUS43 KBIS 230220
RWRND

NORTH DAKOTA REGIONAL WEATHER ROUNDUP
NATIONAL WEATHER SERVICE BISMARCK ND
900 PM CDT MON SEP 22 2014

NOTE: "FAIR" INDICATES FEW OR NO CLOUDS BELOW 12,000 FEET WITH NO
SIGNIFICANT WEATHER AND/OR OBSTRUCTIONS TO VISIBILITY.


NDZ001>003-009>011-017-230300-
NORTHWEST NORTH DAKOTA

CITY           SKY/WX    TMP DP  RH WIND       PRES   REMARKS
WILLISTON      CLEAR     71  50  47 S6        29.87R
MINOT          CLEAR     63  49  60 SE7       29.92S
MINOT AFB      CLEAR     60  50  69 SE9       29.91S
$$

NDZ018>021-031>035-040>046-230300-
SOUTHWEST NORTH DAKOTA

CITY           SKY/WX    TMP DP  RH WIND       PRES   REMARKS
BISMARCK       PTCLDY    63  48  58 E10       29.95S
DICKINSON      PTCLDY    62  49  62 E9        29.90S
GARRISON         N/A     64  50  60 SE7       29.93S
HETTINGER ARPT PTCLDY    65  49  56 E12       29.91S
$$

NDZ004>008-012>016-024-026-027-054-230300-
NORTHEAST NORTH DAKOTA

CITY           SKY/WX    TMP DP  RH WIND       PRES   REMARKS
GRAND FORKS    CLEAR     57  49  74 SE7       30.02R
GRND FRKS AFB  CLEAR     58  49  72 SE8       30.03R
DEVILS LAKE    CLEAR     61  50  67 SE8       29.99S
$$

NDZ022-023-025-028>030-036>039-047>053-230300-
SOUTHEAST NORTH DAKOTA

CITY           SKY/WX    TMP DP  RH WIND       PRES   REMARKS
FARGO          CLEAR     65  48  54 SE8       30.05R
JAMESTOWN      CLEAR     57  48  72 S5        30.02R
$$




USA.gov is the U.S. government's official web portal to all federal, state and local government web resources and services.